Regional Weather Roundup
Issued by NWS Cleveland, OH

Home | Current Version | Previous Version | Text Only | Print | Product List | Glossary On
Versions: 1 2 3 4 5 6 7 8 9 10 11 12 13 14 15 16 17 18 19 20 21 22 23 24 25 26 27 28 29 30 31 32 33 34 35 36 37 38 39 40 41 42 43 44 45 46 47 48 49 50
000
ASUS41 KCLE 161110
RWRCLE
OHIO REGIONAL WEATHER ROUNDUP
NATIONAL WEATHER SERVICE CLEVELAND, OH
700 AM EDT WED APR 16 2014

NOTE: "FAIR" INDICATES FEW OR NO CLOUDS BELOW 12,000 FEET WITH NO
SIGNIFICANT WEATHER AND/OR OBSTRUCTIONS TO VISIBILITY.

OHZ001>008-015>018-024>027-034-035-043-044-161200-
   NORTHWEST OHIO

CITY           SKY/WX    TMP DP  RH WIND       PRES   REMARKS
DEFIANCE       CLEAR     21  16  81 CALM      30.38R
FINDLAY        CLEAR     24  18  77 S5        30.37R WCI  18
TOLEDO EXPRESS CLEAR     19  13  77 CALM      30.38R
TOLEDO EXEC    CLEAR     23  15  71 SW3       30.40R
LIMA           CLEAR     24  19  81 SE3       30.36R
$$

OHZ009>014-019>023-028>033-038-089-161200-
   NORTHEAST OHIO

CITY           SKY/WX    TMP DP  RH WIND       PRES   REMARKS
CLE-HOPKINS    PTCLDY    25  16  68 S6        30.40R WCI  18
CLE-LAKEFRONT  CLEAR     30  11  45 VRB3      30.38R
CUY CO. ARPT   CLEAR     21  18  86 S6        30.38  WCI  14
LORAIN-ELYRIA  CLEAR     25  18  74 CALM      30.39R
ASHTABULA      CLEAR     20  16  84 CALM      30.37R
AKRON-CANTON   CLEAR     21  17  84 CALM      30.36R
WOOSTER        CLEAR     22  18  85 CALM      30.37R
MANSFIELD      CLEAR     22  18  85 CALM      30.35R
YOUNGSTOWN     CLEAR     20  17  88 CALM      30.35R
$$

OHZ042-051>053-060>062-070>072-077>081-161200-
  SOUTHWEST OHIO

CITY           SKY/WX    TMP DP  RH WIND       PRES   REMARKS
CINC-COVINGTON PTCLDY    28  17  63 SE6       30.37R WCI  22
CINC-LUNKEN    CLEAR     24  23  96 CALM      30.42R
HAMILTON       CLEAR     25  20  81 CALM      30.41R
DAYTON         CLEAR     27  15  61 CALM      30.38R
WRIGHT-PAT AFB CLEAR     24  19  82 SE1       30.39R
DAYTON GENERAL CLEAR     24  18  77 E3        30.37R
WILMINGTON     CLEAR     24  18  77 CALM      30.37R
$$

OHZ036-037-039>041-045>050-054>059-063>069-073>076-082>088-161200-
  CENTRAL AND SOUTHEAST OHIO

CITY           SKY/WX    TMP DP  RH WIND       PRES   REMARKS
COLUMBUS       CLEAR     27  17  66 CALM      30.38R
OSU AIRPORT    CLEAR     24  17  74 CALM      30.38R
BOLTON FIELD   CLEAR     22  20  90 CALM      30.39R
RICKENBACK AFB CLEAR     27  20  75 CALM      30.39R
NEWARK         CLEAR     22  17  81 CALM      30.37R
MARION         CLEAR     23  17  78 CALM      30.38R
LANCASTER      CLEAR     22  17  81 CALM      30.39R
ZANESVILLE     CLEAR     22  18  85 CALM      30.38R
NEW PHILLY     CLEAR     22  18  85 CALM      30.39R
$$



USA.gov is the U.S. government's official web portal to all federal, state and local government web resources and services.